Location: Poughquag
(41.6090°N, 73.6820°W)
Time: 14:48:28
(UTC-05:00)

Vanguard 1 - Pass Details

Date: 01 December 2023
Orbit: 653 x 3825 km, 34.3° (Epoch: 03 March)

Event Time Altitude Azimuth Distance (km) Brightness Sun altitude
Rises 19:30:05 0° 247° (WSW) 6,315 15.1 -33.9°
Reaches altitude 10° 19:33:40 10° 245° (WSW) 5,636 14.6 -34.6°
Maximum altitude 19:52:38 68° 168° (SSE) 3,894 12.7 -38.1°
Enters shadow 19:58:33 56° 118° (ESE) 4,249 12.7 -39.2°
Drops below altitude 10° 20:15:40 10° 92° (E) 6,643 - -42.4°
Sets 20:20:21 0° 90° (E) 7,437 - -43.3°
